#timestamp,LO_Frequency,Hit,StdDev 
1562140815.4,286046998.9,N
1562140835.2,286046998.5,N
1562140855.0,286046998.6,N
1562140856.0,286046998.6,N
1562140875.8,286046998.7,N
1562140895.6,286046999.0,N
1562140915.5,286046998.4,N
1562140935.3,286046998.3,N
1562140955.1,286046998.5,N
1562140975.9,286046998.4,N
1562140995.7,286047001.2,N
1562141015.6,286047001.0,N
1562141035.4,286047000.3,N
1562141055.2,286047000.3,N
1562141075.1,286047002.8,N
1562141076.0,286047002.8,N
1562141095.8,286047004.0,N
1562141115.6,286047001.8,N
1562141135.5,286047000.2,N
1562141155.3,286047000.4,N
1562141175.2,286047002.3,N
1562141195.9,286047002.0,N
1562141215.7,286047000.1,N
1562141235.6,286047002.5,N
1562141255.4,286046999.8,N
1562141275.3,286047002.8,N
1562141295.1,286047000.1,N
1562141296.0,286047000.1,N
1562141315.8,286047000.2,N
1562141335.7,286047000.2,N
1562141355.5,286047001.0,N
1562141375.3,286047002.4,N
1562141395.2,286047002.3,N
1562141415.0,286047002.8,N
1562141415.9,286047002.8,N
1562141435.8,286047002.4,N
1562141455.6,286046999.9,N
1562141475.4,286047000.4,N
1562141495.3,286047002.4,N
1562141515.1,286047004.4,Y
1562141535.9,286047001.0,P
1562141555.7,286047000.0,N
1562141575.5,286046998.6,N
1562141595.4,286046998.7,N
1562141615.2,286047001.2,N
1562141635.1,286046996.6,Y
1562141636.0,286046996.6,P
1562141655.8,286046996.5,N
1562141675.6,286046998.8,N
1562141695.5,286046998.9,N
1562141715.3,286046997.0,N
1562141735.1,286046999.6,N
1562141755.9,286046999.1,N
1562141775.7,286046998.9,N
1562141795.6,286046998.2,N
1562141815.4,286046998.6,N
1562141835.2,286046999.4,N
1562141855.1,286046995.0,Y
1562141856.0,286046995.0,P
1562141875.8,286046998.2,N
1562141895.7,286046999.6,N
1562141915.5,286047001.1,N
1562141935.3,286047000.8,N
1562141955.2,286047000.5,N
1562141975.0,286047000.9,N
1562141975.9,286047000.9,N
1562141995.7,286047002.1,N
1562142015.6,286047002.3,N
1562142035.4,286047000.3,N
1562142055.3,286047002.6,N
1562142075.1,286047001.1,N
1562142076.0,286047001.1,N
1562142095.8,286047001.1,N
1562142115.7,286047000.8,N
1562142135.5,286047000.9,N
1562142155.3,286047000.3,N
1562142175.2,286047002.4,N
1562142195.0,286047002.4,N
1562142195.9,286047002.4,N
1562142215.8,286046999.7,N
1562142235.6,286047002.2,N
1562142255.4,286047000.4,N
1562142275.3,286047000.3,N
1562142295.1,286047002.8,N
1562142315.9,286047002.1,N
1562142335.7,286047001.6,N
1562142355.5,286046999.7,N
1562142375.4,286047004.4,N
1562142395.2,286047004.4,N
1562142415.1,286047004.3,Y
1562142416.0,286047004.3,P
1562142435.8,286047002.0,N
1562142455.6,286047004.4,P
1562142475.7,286047002.4,N
1562142495.5,286046999.8,N
1562142515.4,286047002.7,N
1562142535.2,286047000.3,N
1562142555.0,286047002.2,N
1562142555.9,286047002.2,N
1562142575.8,286047004.3,Y
1562142595.6,286047000.5,P
1562142615.5,286047000.7,N
1562142635.3,286046998.7,N
1562142655.1,286046998.5,N
1562142675.9,286046998.7,N
1562142695.7,286047000.8,N
1562142715.6,286047000.4,N
1562142735.4,286046999.9,N
1562142755.2,286047000.5,N
1562142775.1,286047001.2,N
1562142776.0,286047001.2,N
1562142795.8,286047000.9,N
1562142815.6,286046999.4,N
1562142835.5,286046997.8,N
1562142855.3,286046997.1,N
1562142875.2,286046997.8,N
1562142895.9,286046996.5,N
1562142915.7,286046998.1,N
1562142935.6,286046998.2,N
1562142955.4,286047000.5,N
1562142975.2,286047000.9,N
1562142995.1,286047001.0,N
1562142996.0,286047001.0,N
1562143015.8,286046998.2,N
1562143035.7,286046998.5,N
1562143055.5,286046998.4,N
1562143075.3,286046998.6,N
1562143095.2,286046999.0,N
1562143115.0,286046996.7,N
1562143115.9,286046996.7,N
1562143135.8,286046999.4,N
1562143155.6,286046998.7,N
1562143175.4,286046998.5,N
1562143195.3,286046998.3,N
1562143215.1,286046998.3,N
1562143235.8,286046998.2,N
1562143255.7,286047000.6,N
1562143275.5,286047001.0,N
1562143295.4,286047000.4,N
1562143315.2,286047000.3,N
1562143335.0,286047000.3,N
1562143335.9,286047000.3,N
1562143355.8,286047000.5,N
1562143375.6,286047000.6,N
1562143395.5,286047000.3,N
1562143415.4,286047000.4,N
1562143435.2,286047001.0,N
1562143455.1,286047000.7,N
1562143456.0,286047000.7,N
1562143475.8,286047000.9,N
1562143495.6,286046998.1,N
1562143515.5,286046999.0,N
1562143535.3,286046999.1,N
1562143555.2,286046996.5,N
1562143575.9,286046995.0,Y
1562143595.7,286046996.6,P
1562143615.6,286046999.4,N
1562143635.4,286046997.0,N
1562143655.2,286046997.4,N
1562143675.1,286046997.1,N
1562143676.0,286046997.1,N
1562143695.8,286046996.5,Y
1562143715.7,286046998.3,P
1562143735.5,286046998.2,P
1562143755.3,286046999.3,N
1562143775.2,286046998.4,N
1562143795.0,286046998.3,Y
1562143795.9,286046998.3,P
1562143815.8,286047000.0,N
1562143835.6,286047000.0,N
1562143855.4,286047000.6,N
1562143875.3,286047001.2,N
1562143895.1,286046998.1,N
1562143915.9,286047000.6,N
1562143935.7,286046998.1,N
1562143955.5,286046998.6,N
1562143975.4,286046999.0,N
1562143995.2,286046998.2,N
1562144015.0,286047001.2,N
1562144035.7,286047000.9,N
1562144055.5,286046998.2,N
1562144075.5,286046998.1,N
1562144095.3,286046998.3,N
1562144115.2,286046998.1,N
1562144135.0,286046998.1,N
1562144135.9,286046998.1,N
1562144155.7,286047000.4,N
1562144175.6,286047000.2,N
1562144195.4,286047000.4,N
1562144215.3,286046999.9,N
1562144235.1,286047000.3,N
1562144236.0,286047000.3,N
1562144255.8,286046999.7,N
1562144275.7,286047000.9,N
1562144295.5,286046999.8,N
1562144315.4,286047002.1,N
1562144335.2,286047002.6,N
1562144355.0,286047002.5,N
1562144355.9,286047002.5,N
1562144375.8,286047002.5,N
1562144395.6,286047001.7,N
